Location: Colle Santa Colomba
(42.0333°N, 12.5667°E)
Time: 21:46:28
(UTC+00:00)

ISS - Visible Passes

Search period start: 28 November 2022 00:00
Search period end: 08 December 2022 00:00
Orbit: 411 x 420 km, 51.6° (Epoch: 28 November)

Date Brightness Start Highest point End Pass type
(mag) Time Alt. Az. Time Alt. Az. Time Alt. Az.
28 Nov -1.3 17:41:32 10° NW 17:42:29 14° NNW 17:42:29 14° NNW visible
29 Nov -1.8 16:52:50 10° NW 16:55:03 16° N 16:55:47 15° NNE visible
30 Nov -1.6 17:40:43 10° NW 17:41:59 18° NNW 17:41:59 18° NNW visible
01 Dec -2.3 16:52:03 10° NW 16:54:43 21° NNE 16:55:20 20° NNE visible
02 Dec -2.3 17:39:43 10° NW 17:41:39 30° NNW 17:41:39 30° NNW visible
03 Dec -3.1 16:51:01 10° NW 16:54:08 35° NNE 16:55:12 27° ENE visible
03 Dec -0.4 18:27:48 10° WNW 18:28:07 12° WNW 18:28:07 12° WNW visible
04 Dec -2.6 16:02:18 10° NW 16:05:10 26° NNE 16:08:02 10° E visible
04 Dec -3.2 17:38:48 10° WNW 17:41:49 55° WSW 17:41:49 55° WSW visible
05 Dec -3.9 16:49:55 10° NW 16:53:15 81° NE 16:55:46 16° ESE visible
05 Dec -0.4 18:28:08 10° WSW 18:28:42 11° WSW 18:28:42 11° WSW visible
06 Dec -1.3 17:38:15 10° W 17:40:50 21° SW 17:43:01 12° S visible
07 Dec -2.2 16:48:58 10° WNW 16:52:04 36° SW 16:55:07 10° SSE visible
